Tracking 19730 objects as of 27-Jun-2019
HD Live streaming from Space Station
objects crossing your sky now

MOLNIYA 1-75

Track MOLNIYA 1-75 now!
MOLNIYA 1-75 is classified as:


NORAD ID: 19807
Int'l Code: 1989-014A
Perigee: 1,581.4 km
Apogee: 38,798.6 km
Inclination: 64.2 °
Period: 718.0 minutes
Semi major axis: 26560 km
RCS: 12.6191 m2 (large)
Launch date: February 15, 1989
Source: Commonwealth of Independent States (former USSR) (CIS)
Launch site: TYURATAM MISSILE AND SPACE COMPLEX (TTMTR)
aabbcc
Your satellite tracking list
Your tracking list is empty




NASA's NSSDC Master Catalog

Two Line Element Set (TLE):
1 19807U 89014A   19176.97129568 -.00000294 +00000-0 +27680-3 0  9990
2 19807 064.2070 055.1162 7005985 273.4807 015.6621 02.00556497222275
Source of the keplerian elements: AFSPC